Regional Weather Roundup
Issued by NWS

Home | Current Version | Previous Version | Graphics & Text | Print | Product List | Glossary On
Versions: 1 2 3 4 5 6 7 8 9 10 11 12 13 14 15 16 17 18 19 20 21 22 23 24 25 26 27 28 29 30 31 32 33 34 35 36 37 38 39 40 41 42 43 44 45 46 47 48 49 50
000
ASUS43 KLSX 230407
RWRMO

WEATHER SUMMARY FOR MISSOURI
NATIONAL WEATHER SERVICE SPRINGFIELD MO
1100 PM CDT TUE AUG 22 2017

NOTE: "FAIR" INDICATES FEW OR NO CLOUDS BELOW 12,000 FEET WITH NO
       SIGNIFICANT WEATHER AND/OR OBSTRUCTIONS TO VISIBILITY.
       CURRENT SKY AND/OR WEATHER CONDITIONS ARE NOT AVAILABLE FOR
       CHILLICOTHE AND FARMINGTON.

MOZ001>031-035>038-043-044-053-054-230500-
...NORTHERN AND WESTERN MISSOURI...

CITY           SKY/WX    TMP DP  RH WIND       PRES   REMARKS
KANSAS CTY INT CLEAR     62  53  72 N8        30.15R
KANSAS C DTWN  CLEAR     66  57  72 N5        30.13R
LEE`S SUMMIT   CLEAR     64  57  78 MISG      30.14R
ST JOSEPH      CLEAR     56  56 100 CALM      30.15R
CHILLICOTHE      N/A     58  58 100 CALM      30.14R
KIRKSVILLE     CLEAR     58  32  37 N3        30.13R

$$
MOZ066>068-077>081-088>096-101>105-230500-
...SOUTHWEST MISSOURI...

CITY           SKY/WX    TMP DP  RH WIND       PRES   REMARKS
SPRINGFIELD    CLOUDY    73  66  78 NE10      30.10R
JOPLIN         PTCLDY    74  69  85 NE7       30.10R
BRANSON        CLOUDY    75  72  88 CALM      30.10R

$$
MOZ032>034-039>042-045>050-055>058-069>072-230500-
...CENTRAL MISSOURI...

CITY           SKY/WX    TMP DP  RH WIND       PRES   REMARKS
COLUMBIA       CLEAR     64  55  72 N9        30.10S
JEFFERSON CITY CLEAR     66  62  87 NW3       30.08S
ROLLA          CLEAR     67  63  87 N5        30.10R
SEDALIA        CLEAR     64  61  90 N3        30.12R
WHITEMAN AFB   CLEAR     62  62 100 CALM      30.11R
WARRENSBURG    CLEAR     63  55  77 NW3       30.12S
OSAGE BEACH    CLEAR     67  61  81 N5        30.11R

$$
MOZ051-052-059>065-230500-
...EAST CENTRAL MISSOURI...

CITY           SKY/WX    TMP DP  RH WIND       PRES   REMARKS
ST LOUIS INTL  CLEAR     70  60  70 N8        30.07R
SPIRIT OF STL  CLEAR     65  63  93 CALM      30.06R
ST CHARLES     CLEAR     68  58  70 N9        30.06R

$$
MOZ072>076-082>087-097>100-106>115-230500-
...SOUTH CENTRAL AND SOUTHEAST MISSOURI...

CITY           SKY/WX    TMP DP  RH WIND       PRES   REMARKS
CAPE GIRARDEAU CLEAR     68  65  90 SW3       30.02R
FARMINGTON     CLEAR     70  64  81 N7        30.07S
POPLAR BLUFF   MOCLDY    72  70  93 CALM      30.02R
WEST PLAINS    CLEAR     70  66  87 NE3       30.10R

$$



USA.gov is the U.S. government's official web portal to all federal, state and local government web resources and services.